Time,TemperatureF,DewpointF,PressureIn,WindDirection,WindDirectionDegrees,WindSpeedMPH,WindSpeedGustMPH,Humidity,HourlyPrecipIn,Conditions,Clouds,dailyrainin,SoftwareType,DateUTC
2013-03-06 00:00:00,40.3,32.0,29.74,ENE,71,4.0,9.0,71,0.00,,,0.58,weatherlink.com 1.10,2013-03-06 05:00:00,
2013-03-06 00:15:00,39.8,31.0,29.75,NNW,346,2.0,10.0,71,0.00,,,0.00,weatherlink.com 1.10,2013-03-06 05:15:00,
2013-03-06 00:30:00,39.3,31.0,29.76,WNW,295,1.0,5.0,71,0.00,,,0.00,weatherlink.com 1.10,2013-03-06 05:30:00,
2013-03-06 00:45:00,39.3,29.0,29.76,West,273,4.0,6.0,67,0.00,,,0.00,weatherlink.com 1.10,2013-03-06 05:45:00,
2013-03-06 01:00:00,38.7,30.0,29.76,North,11,3.0,7.0,71,0.00,,,0.00,weatherlink.com 1.10,2013-03-06 06:00:00,
2013-03-06 01:15:00,38.3,30.0,29.76,NW,310,5.0,9.0,72,0.00,,,0.00,weatherlink.com 1.10,2013-03-06 06:15:00,
2013-03-06 01:30:00,38.1,30.0,29.77,NNE,18,2.0,8.0,72,0.00,,,0.00,weatherlink.com 1.10,2013-03-06 06:30:00,
2013-03-06 01:45:00,38.0,29.0,29.77,NW,309,4.0,9.0,70,0.00,,,0.00,weatherlink.com 1.10,2013-03-06 06:45:00,
2013-03-06 02:00:00,37.9,28.0,29.77,SW,229,3.0,11.0,68,0.00,,,0.00,weatherlink.com 1.10,2013-03-06 07:00:00,
2013-03-06 02:15:00,37.7,28.0,29.77,NW,317,3.0,5.0,67,0.00,,,0.00,weatherlink.com 1.10,2013-03-06 07:15:00,
2013-03-06 02:30:00,37.4,26.0,29.76,WNW,286,1.0,10.0,64,0.00,,,0.00,weatherlink.com 1.10,2013-03-06 07:30:00,
2013-03-06 02:45:00,37.1,27.0,29.76,NNW,328,1.0,6.0,66,0.00,,,0.00,weatherlink.com 1.10,2013-03-06 07:45:00,
2013-03-06 03:00:00,36.6,27.0,29.76,North,5,1.0,6.0,68,0.00,,,0.00,weatherlink.com 1.10,2013-03-06 08:00:00,
2013-03-06 03:15:00,36.2,27.0,29.77,North,355,8.0,8.0,70,0.00,,,0.00,weatherlink.com 1.10,2013-03-06 08:15:00,
2013-03-06 03:30:00,36.0,27.0,29.77,NNW,327,2.0,9.0,71,0.00,,,0.00,weatherlink.com 1.10,2013-03-06 08:30:00,
2013-03-06 03:46:00,35.5,28.0,29.77,East,100,2.0,9.0,75,0.00,,,0.00,weatherlink.com 1.10,2013-03-06 08:46:00,
2013-03-06 04:01:00,34.9,28.0,29.77,North,10,4.0,8.0,77,0.00,,,0.00,weatherlink.com 1.10,2013-03-06 09:01:00,
2013-03-06 04:16:00,34.3,29.0,29.77,NNW,334,4.0,8.0,80,0.00,,,0.00,weatherlink.com 1.10,2013-03-06 09:16:00,
2013-03-06 04:31:00,33.8,29.0,29.78,NE,55,1.0,5.0,82,0.00,,,0.00,weatherlink.com 1.10,2013-03-06 09:31:00,
2013-03-06 04:46:00,33.6,28.0,29.79,ESE,107,0.0,6.0,81,0.00,,,0.00,weatherlink.com 1.10,2013-03-06 09:46:00,
2013-03-06 05:01:00,33.3,27.0,29.79,North,9,4.0,7.0,76,0.00,,,0.00,weatherlink.com 1.10,2013-03-06 10:01:00,
2013-03-06 05:16:00,33.9,24.0,29.80,West,275,1.0,12.0,67,0.00,,,0.00,weatherlink.com 1.10,2013-03-06 10:16:00,
2013-03-06 05:31:00,33.8,24.0,29.80,North,9,6.0,7.0,67,0.00,,,0.00,weatherlink.com 1.10,2013-03-06 10:31:00,
2013-03-06 05:46:00,33.6,23.0,29.81,NE,44,0.0,10.0,65,0.00,,,0.00,weatherlink.com 1.10,2013-03-06 10:46:00,
2013-03-06 06:01:00,33.5,21.0,29.82,North,355,1.0,8.0,61,0.00,,,0.00,weatherlink.com 1.10,2013-03-06 11:01:00,
2013-03-06 06:16:00,33.1,21.0,29.83,SE,145,0.0,5.0,62,0.00,,,0.00,weatherlink.com 1.10,2013-03-06 11:16:00,
2013-03-06 06:31:00,32.7,21.0,29.84,NNW,332,0.0,4.0,63,0.00,,,0.00,weatherlink.com 1.10,2013-03-06 11:31:00,
2013-03-06 06:46:00,32.3,21.0,29.84,NE,52,0.0,4.0,64,0.00,,,0.00,weatherlink.com 1.10,2013-03-06 11:46:00,
2013-03-06 07:01:00,31.8,22.0,29.85,NNE,17,0.0,3.0,67,0.00,,,0.00,weatherlink.com 1.10,2013-03-06 12:01:00,
2013-03-06 07:16:00,32.0,22.0,29.84,ENE,67,0.0,5.0,66,0.00,,,0.00,weatherlink.com 1.10,2013-03-06 12:16:00,
2013-03-06 07:31:00,33.0,22.0,29.85,NW,321,0.0,6.0,63,0.00,,,0.00,weatherlink.com 1.10,2013-03-06 12:31:00,
2013-03-06 07:46:00,34.0,22.0,29.86,NNE,32,3.0,5.0,62,0.00,,,0.00,weatherlink.com 1.10,2013-03-06 12:46:00,
2013-03-06 08:01:00,35.2,23.0,29.86,NE,39,1.0,8.0,61,0.00,,,0.00,weatherlink.com 1.10,2013-03-06 13:01:00,
2013-03-06 08:16:00,35.2,22.0,29.86,NNW,345,2.0,7.0,60,0.00,,,0.00,weatherlink.com 1.10,2013-03-06 13:16:00,
2013-03-06 08:31:00,36.3,23.0,29.86,NE,39,2.0,6.0,59,0.00,,,0.00,weatherlink.com 1.10,2013-03-06 13:31:00,
2013-03-06 08:46:00,37.2,23.0,29.87,ENE,59,3.0,7.0,57,0.00,,,0.00,weatherlink.com 1.10,2013-03-06 13:46:00,
2013-03-06 09:01:00,38.0,22.0,29.87,NNE,12,3.0,13.0,52,0.00,,,0.00,weatherlink.com 1.10,2013-03-06 14:01:00,
2013-03-06 09:16:00,39.2,23.0,29.88,NE,54,3.0,9.0,52,0.00,,,0.00,weatherlink.com 1.10,2013-03-06 14:16:00,
2013-03-06 09:31:00,39.1,22.0,29.89,WNW,291,4.0,10.0,51,0.00,,,0.00,weatherlink.com 1.10,2013-03-06 14:31:00,
2013-03-06 09:46:00,38.7,22.0,29.90,NNW,329,2.0,11.0,51,0.00,,,0.00,weatherlink.com 1.10,2013-03-06 14:46:00,
2013-03-06 10:01:00,40.5,23.0,29.90,SW,228,1.0,8.0,50,0.00,,,0.00,weatherlink.com 1.10,2013-03-06 15:01:00,
2013-03-06 10:16:00,41.5,24.0,29.90,West,270,4.0,11.0,50,0.00,,,0.00,weatherlink.com 1.10,2013-03-06 15:16:00,
2013-03-06 10:31:00,42.5,23.0,29.91,North,355,6.0,9.0,47,0.00,,,0.00,weatherlink.com 1.10,2013-03-06 15:31:00,
2013-03-06 10:47:00,43.6,22.0,29.91,West,262,5.0,11.0,43,0.00,,,0.00,weatherlink.com 1.10,2013-03-06 15:47:00,
2013-03-06 11:02:00,44.2,24.0,29.91,NNE,17,7.0,11.0,45,0.00,,,0.00,weatherlink.com 1.10,2013-03-06 16:02:00,
2013-03-06 11:17:00,44.2,22.0,29.91,ENE,69,2.0,10.0,42,0.00,,,0.00,weatherlink.com 1.10,2013-03-06 16:17:00,
2013-03-06 11:32:00,44.8,22.0,29.91,WNW,294,1.0,10.0,41,0.00,,,0.00,weatherlink.com 1.10,2013-03-06 16:32:00,
2013-03-06 11:46:00,45.8,25.0,29.92,ENE,76,2.0,9.0,45,0.00,,,0.00,weatherlink.com 1.10,2013-03-06 16:46:00,
2013-03-06 12:01:00,46.8,23.0,29.93,NNE,30,0.0,7.0,40,0.00,,,0.00,weatherlink.com 1.10,2013-03-06 17:01:00,
2013-03-06 12:17:00,45.5,23.0,29.93,NW,325,6.0,8.0,41,0.00,,,0.00,weatherlink.com 1.10,2013-03-06 17:17:00,
2013-03-06 12:32:00,46.1,25.0,29.93,SW,223,2.0,7.0,44,0.00,,,0.00,weatherlink.com 1.10,2013-03-06 17:32:00,
2013-03-06 12:47:00,48.3,24.0,29.93,North,355,2.0,9.0,39,0.00,,,0.00,weatherlink.com 1.10,2013-03-06 17:47:00,
2013-03-06 13:02:00,48.4,25.0,29.93,NNE,15,3.0,9.0,40,0.00,,,0.00,weatherlink.com 1.10,2013-03-06 18:02:00,
2013-03-06 13:17:00,46.8,24.0,29.93,ENE,57,3.0,8.0,41,0.00,,,0.00,weatherlink.com 1.10,2013-03-06 18:17:00,
2013-03-06 13:32:00,46.1,25.0,29.93,NNW,342,2.0,6.0,43,0.00,,,0.00,weatherlink.com 1.10,2013-03-06 18:32:00,
2013-03-06 13:47:00,45.8,25.0,29.94,NNE,31,3.0,6.0,44,0.00,,,0.00,weatherlink.com 1.10,2013-03-06 18:47:00,
2013-03-06 14:02:00,46.2,25.0,29.94,NW,323,1.0,7.0,43,0.00,,,0.00,weatherlink.com 1.10,2013-03-06 19:02:00,
2013-03-06 14:17:00,46.2,25.0,29.95,NE,50,2.0,12.0,43,0.00,,,0.00,weatherlink.com 1.10,2013-03-06 19:17:00,
2013-03-06 14:32:00,47.1,25.0,29.95,ENE,76,3.0,10.0,42,0.00,,,0.00,weatherlink.com 1.10,2013-03-06 19:32:00,
2013-03-06 14:47:00,48.0,25.0,29.95,NNE,17,3.0,9.0,41,0.00,,,0.00,weatherlink.com 1.10,2013-03-06 19:47:00,
2013-03-06 15:02:00,48.0,25.0,29.97,East,88,3.0,9.0,41,0.00,,,0.00,weatherlink.com 1.10,2013-03-06 20:02:00,
2013-03-06 15:17:00,46.3,25.0,29.98,North,355,4.0,8.0,43,0.00,,,0.00,weatherlink.com 1.10,2013-03-06 20:17:00,
2013-03-06 15:32:00,47.4,25.0,29.98,NW,312,2.0,12.0,42,0.00,,,0.00,weatherlink.com 1.10,2013-03-06 20:32:00,
2013-03-06 15:47:00,49.1,26.0,29.98,NE,54,5.0,6.0,41,0.00,,,0.00,weatherlink.com 1.10,2013-03-06 20:47:00,
2013-03-06 16:02:00,49.1,26.0,29.98,NNW,328,1.0,9.0,41,0.00,,,0.00,weatherlink.com 1.10,2013-03-06 21:02:00,
2013-03-06 16:17:00,49.6,25.0,29.99,NNE,22,3.0,7.0,39,0.00,,,0.00,weatherlink.com 1.10,2013-03-06 21:17:00,
2013-03-06 16:32:00,49.8,26.0,29.99,NW,319,0.0,8.0,40,0.00,,,0.00,weatherlink.com 1.10,2013-03-06 21:32:00,
2013-03-06 16:47:00,50.0,26.0,30.01,North,5,3.0,6.0,39,0.00,,,0.00,weatherlink.com 1.10,2013-03-06 21:47:00,
2013-03-06 17:02:00,49.7,28.0,30.02,NNE,22,5.0,10.0,43,0.00,,,0.00,weatherlink.com 1.10,2013-03-06 22:02:00,
2013-03-06 17:17:00,49.2,27.0,30.02,SSW,197,2.0,6.0,42,0.00,,,0.00,weatherlink.com 1.10,2013-03-06 22:17:00,
2013-03-06 17:32:00,47.7,27.0,30.04,ESE,111,2.0,7.0,44,0.00,,,0.00,weatherlink.com 1.10,2013-03-06 22:32:00,
2013-03-06 17:47:00,45.9,27.0,30.05,NE,54,3.0,10.0,47,0.00,,,0.00,weatherlink.com 1.10,2013-03-06 22:47:00,
2013-03-06 18:02:00,44.3,27.0,30.06,East,99,2.0,5.0,50,0.00,,,0.00,weatherlink.com 1.10,2013-03-06 23:02:00,
2013-03-06 18:17:00,42.7,26.0,30.07,East,93,1.0,10.0,53,0.00,,,0.00,weatherlink.com 1.10,2013-03-06 23:17:00,
2013-03-06 18:32:00,41.8,27.0,30.08,East,96,1.0,11.0,55,0.00,,,0.00,weatherlink.com 1.10,2013-03-06 23:32:00,
2013-03-06 18:47:00,41.0,27.0,30.09,ENE,58,1.0,3.0,57,0.00,,,0.00,weatherlink.com 1.10,2013-03-06 23:47:00,
2013-03-06 19:02:00,40.2,26.0,30.09,ESE,105,2.0,9.0,58,0.00,,,0.00,weatherlink.com 1.10,2013-03-07 00:02:00,
2013-03-06 19:17:00,39.6,26.0,30.11,ENE,63,2.0,4.0,59,0.00,,,0.00,weatherlink.com 1.10,2013-03-07 00:17:00,
2013-03-06 19:33:00,38.8,26.0,30.11,East,94,1.0,3.0,61,0.00,,,0.00,weatherlink.com 1.10,2013-03-07 00:33:00,
2013-03-06 19:48:00,38.0,26.0,30.11,East,87,2.0,2.0,63,0.00,,,0.00,weatherlink.com 1.10,2013-03-07 00:48:00,
2013-03-06 20:03:00,37.5,26.0,30.11,ENE,75,1.0,5.0,64,0.00,,,0.00,weatherlink.com 1.10,2013-03-07 01:03:00,
2013-03-06 20:18:00,37.3,26.0,30.11,NE,36,1.0,4.0,65,0.00,,,0.00,weatherlink.com 1.10,2013-03-07 01:18:00,
2013-03-06 20:33:00,36.9,26.0,30.11,ENE,67,0.0,3.0,66,0.00,,,0.00,weatherlink.com 1.10,2013-03-07 01:33:00,
2013-03-06 20:48:00,36.6,27.0,30.12,SSW,207,0.0,3.0,67,0.00,,,0.00,weatherlink.com 1.10,2013-03-07 01:48:00,
2013-03-06 21:04:00,35.9,26.0,30.12,ESE,109,2.0,2.0,68,0.00,,,0.00,weatherlink.com 1.10,2013-03-07 02:04:00,
2013-03-06 21:18:00,36.2,26.0,30.12,North,5,1.0,7.0,67,0.00,,,0.00,weatherlink.com 1.10,2013-03-07 02:18:00,
2013-03-06 21:33:00,36.1,26.0,30.13,ENE,57,0.0,2.0,68,0.00,,,0.00,weatherlink.com 1.10,2013-03-07 02:33:00,
2013-03-06 21:48:00,35.6,26.0,30.14,NNE,30,0.0,1.0,69,0.00,,,0.00,weatherlink.com 1.10,2013-03-07 02:48:00,
2013-03-06 22:03:00,34.9,26.0,30.13,NNE,30,0.0,1.0,71,0.00,,,0.00,weatherlink.com 1.10,2013-03-07 03:03:00,
2013-03-06 22:18:00,34.1,27.0,30.13,NNE,28,0.0,3.0,74,0.00,,,0.00,weatherlink.com 1.10,2013-03-07 03:18:00,
2013-03-06 22:33:00,34.0,27.0,30.14,NNE,28,1.0,2.0,74,0.00,,,0.00,weatherlink.com 1.10,2013-03-07 03:33:00,
2013-03-06 22:48:00,33.9,26.0,30.14,NNE,28,0.0,1.0,73,0.00,,,0.00,weatherlink.com 1.10,2013-03-07 03:48:00,
2013-03-06 23:03:00,33.3,26.0,30.14,NNE,28,0.0,1.0,75,0.00,,,0.00,weatherlink.com 1.10,2013-03-07 04:03:00,
2013-03-06 23:18:00,32.6,26.0,30.14,NNE,28,0.0,1.0,77,0.00,,,0.00,weatherlink.com 1.10,2013-03-07 04:18:00,
2013-03-06 23:33:00,31.9,26.0,30.14,NNE,28,0.0,1.0,79,0.00,,,0.00,weatherlink.com 1.10,2013-03-07 04:33:00,
2013-03-06 23:48:00,31.2,26.0,30.14,NNE,28,0.0,1.0,81,0.00,,,0.00,weatherlink.com 1.10,2013-03-07 04:48:00,